Location: Houhaj�rvi
(61.2833°N, 23.0000°E)
Time: 18:48:11
(UTC+00:00)

Cosmos 1864 Rocket - Pass Details

Date: 27 February 2020
Orbit: 952 x 997 km, 82.9° (Epoch: 05 April)

Event Time Altitude Azimuth Distance (km) Brightness Sun altitude
Rises 16:25:13 0° 186° (S) 3,633 7.7 -5.5°
Reaches altitude 10° 16:27:42 10° 185° (S) 2,687 7.0 -5.8°
Maximum altitude 16:33:50 79° 100° (E) 978 4.5 -6.5°
Drops below altitude 10° 16:39:59 10° 15° (NNE) 2,694 6.6 -7.2°
Sets 16:42:30 0° 15° (NNE) 3,645 7.3 -7.5°
